This is the latest recevied weather packets stored in our database for station/object 9A3SWO. If no packets are shown the sender has not sent any weather packets the latest 10 day(s).
| Time | Temp. | Humidity | Pressure | Rain* | Wind** | Luminosity | Snow |
|---|---|---|---|---|---|---|---|
| 1787918903 | 30.56° C | 47% | 1013.7 hPa | - | - | - | - |
| 1787918301 | 31.11° C | 46% | 1013.9 hPa | - | - | - | - |
| 1787917702 | 31.11° C | 47% | 1014.1 hPa | - | - | - | - |
| 1787917102 | 30.56° C | 48% | 1014.2 hPa | - | - | - | - |
| 1787916502 | 30.56° C | 48% | 1014.5 hPa | - | - | - | - |
| 1787915902 | 30.56° C | 49% | 1014.6 hPa | - | - | - | - |
| 1787915302 | 30.56° C | 49% | 1014.6 hPa | - | - | - | - |
| 1787914702 | 30° C | 49% | 1014.8 hPa | - | - | - | - |
| 1787914102 | 30° C | 51% | 1015 hPa | - | - | - | - |
| 1787913501 | 29.44° C | 53% | 1015.3 hPa | - | - | - | - |
| 1787912902 | 28.89° C | 54% | 1015.3 hPa | - | - | - | - |
| 1787912301 | 28.33° C | 55% | 1015.3 hPa | - | - | - | - |
| 1787911702 | 28.33° C | 55% | 1015.6 hPa | - | - | - | - |
| 1787911101 | 28.33° C | 54% | 1015.9 hPa | - | - | - | - |
| 1787910501 | 28.33° C | 53% | 1016 hPa | - | - | - | - |
| 1787909902 | 28.33° C | 53% | 1015.8 hPa | - | - | - | - |
| 1787909301 | 28.33° C | 53% | 1016 hPa | - | - | - | - |
| 1787908701 | 28.33° C | 52% | 1015.9 hPa | - | - | - | - |
| 1787908102 | 27.78° C | 54% | 1016.2 hPa | - | - | - | - |
| 1787907501 | 28.89° C | 53% | 1016.1 hPa | - | - | - | - |
| 1787906901 | 28.33° C | 53% | 1016 hPa | - | - | - | - |
| 1787906301 | 28.33° C | 54% | 1016.1 hPa | - | - | - | - |
| 1787905701 | 28.33° C | 55% | 1016.2 hPa | - | - | - | - |
| 1787905101 | 28.33° C | 54% | 1016.3 hPa | - | - | - | - |
| 1787904501 | 27.78° C | 55% | 1016.3 hPa | - | - | - | - |
* Rain since midnight (hover to see other rain measurements)
** Current wind speed in m/s (hover to see current wind gust speed)